Location: Springfield
(37.2150°N, 93.2980°W)
Time: 20:20:01
(UTC-06:00)

Cosmos 1869 - Visible Passes

Search period start: 16 February 2019 00:00
Search period end: 26 February 2019 00:00
Orbit: 537 x 547 km, 82.5° (Epoch: 15 February)

Date Brightness Start Highest point End Pass type
(mag) Time Alt. Az. Time Alt. Az. Time Alt. Az.
16 Feb 4.6 05:00:04 10° SSE 05:03:49 41° E 05:07:36 10° NNE visible
17 Feb 4.5 04:53:18 10° SSE 04:57:05 42° E 05:00:53 10° NNE visible
17 Feb 5.2 06:32:02 10° W 06:33:34 12° WNW 06:35:05 10° NW visible
18 Feb 4.4 04:48:12 22° SSE 04:50:21 43° E 04:54:10 10° NNE visible
18 Feb 5.2 06:25:28 10° W 06:26:51 11° WNW 06:28:13 10° NW visible
19 Feb 4.3 04:43:43 45° E 04:43:43 45° E 04:47:27 10° NNE visible
19 Feb 5.2 06:19:22 11° W 06:20:08 11° WNW 06:21:20 10° NW visible
20 Feb 4.9 04:38:21 31° NE 04:38:21 31° NE 04:40:44 10° NNE visible
20 Feb 5.3 06:13:59 11° WNW 06:13:59 11° WNW 06:14:26 10° WNW visible
21 Feb 5.5 04:32:37 20° NNE 04:32:37 20° NNE 04:34:02 10° NNE visible
22 Feb 5.9 04:26:39 14° NNE 04:26:39 14° NNE 04:27:18 10° NNE visible
23 Feb 6.2 04:20:32 10° NNE 04:20:32 10° NNE 04:20:35 10° NNE visible
